Вернуться в каталог

ARIANE 2 DEB

LostGTO
NORAD 27038·DEBRIS·🇫🇷 France

Запущен Jan 27, 1989 с Guiana Space Centre

Loading…

TLE

УстаревшееSource: Space-Track

Эпоха: Jun 5, 2026, 04:48 UTC

1 27038U 89006T   26156.20039421  .00000126  00000-0  45945-3 0  9993
2 27038   8.7296 312.0087 7204185 318.8214   4.8913  2.31088050208720

Отслеживайте ARIANE 2 DEB в реальном времени с AllMySat

Download on the App Store